When you browse on this site, cookies collect data to enhance your experience and personalize the content and advertising you see.
Visit our Privacy Policy to learn more. By continuing to use the site, you agree to this use of cookies and data.
  • En España
  • Lista de países
  • Para 7 días
  • Temperatura del agua
  • Mapa Satelital
  • El tiempo en el mapa
  • Informadores
  • user-avatar
    Iniciar sesión

    Tiempo cada hora Connaught

    Hoy, 18 Enero, Viernes

    Tiempo Temperatura Precipitaciones Viento Presión Humedad
    00:00 -1°C° 0.5 mm 7 mps 740 mmHg 79%
    01:00 -1°C° 0.5 mm 7 mps 740 mmHg 84%
    02:00 -1°C° 0.5 mm 8 mps 739 mmHg 88%
    03:00 -1°C° 0.2 mm 7 mps 738 mmHg 91%
    04:00 +1°C° 0.2 mm 6 mps 737 mmHg 93%
    05:00 +2°C° 0.2 mm 6 mps 737 mmHg 95%
    06:00 +2°C° 0.1 mm 5 mps 736 mmHg 96%
    07:00 +3°C° 0.1 mm 4 mps 736 mmHg 97%
    08:00 +3°C° 0.1 mm 3 mps 736 mmHg 98%
    09:00 +4°C° 0.1 mm 3 mps 736 mmHg 96%
    10:00 +4°C° 0.1 mm 3 mps 736 mmHg 95%
    11:00 +5°C° 0.1 mm 3 mps 736 mmHg 93%
    12:00 +7°C° 0.2 mm 3 mps 736 mmHg 93%
    13:00 +7°C° 0.2 mm 3 mps 735 mmHg 92%
    14:00 +7°C° 0.2 mm 3 mps 735 mmHg 91%
    15:00 +5°C° 0.3 mm 3 mps 735 mmHg 93%
    16:00 +5°C° 0.3 mm 3 mps 735 mmHg 95%
    17:00 +4°C° 0.3 mm 3 mps 735 mmHg 97%
    18:00 +5°C° 0.5 mm 2 mps 735 mmHg 97%
    19:00 +5°C° 0.5 mm 2 mps 735 mmHg 97%
    20:00 +5°C° 0.5 mm 2 mps 735 mmHg 97%
    21:00 +4°C° 0.1 mm 2 mps 735 mmHg 97%
    22:00 +4°C° 0.1 mm 2 mps 735 mmHg 97%
    23:00 +3°C° 0.1 mm 2 mps 735 mmHg 97%

    Mañana, 19 Enero, Sábado

    Tiempo Temperatura Precipitaciones Viento Presión Humedad
    00:00 +3°C° 0 mm 2 mps 735 mmHg 97%
    01:00 +4°C° 0 mm 1 mps 735 mmHg 97%
    02:00 +4°C° 0 mm 1 mps 735 mmHg 96%
    03:00 +4°C° 0 mm 1 mps 735 mmHg 96%
    04:00 +4°C° 0 mm 1 mps 735 mmHg 96%
    05:00 +4°C° 0 mm 1 mps 735 mmHg 96%
    06:00 +4°C° 0 mm 1 mps 736 mmHg 96%
    07:00 +4°C° 0 mm 1 mps 736 mmHg 97%
    08:00 +3°C° 0 mm 1 mps 736 mmHg 97%
    09:00 +3°C° 0 mm 0 mps 737 mmHg 96%
    10:00 +5°C° 0 mm 0 mps 737 mmHg 94%
    11:00 +6°C° 0 mm 0 mps 738 mmHg 93%
    12:00 +6°C° 0 mm 0 mps 738 mmHg 93%
    13:00 +6°C° 0 mm 0 mps 738 mmHg 92%
    14:00 +7°C° 0 mm 0 mps 738 mmHg 92%
    15:00 +6°C° 0 mm 0 mps 739 mmHg 93%
    16:00 +6°C° 0 mm 0 mps 739 mmHg 94%
    17:00 +6°C° 0 mm 1 mps 740 mmHg 96%
    18:00 +6°C° 0 mm 1 mps 740 mmHg 96%
    19:00 +6°C° 0 mm 1 mps 741 mmHg 96%
    20:00 +5°C° 0 mm 2 mps 742 mmHg 96%
    21:00 +5°C° 0.1 mm 2 mps 742 mmHg 95%
    22:00 +5°C° 0.1 mm 3 mps 743 mmHg 93%
    23:00 +5°C° 0.1 mm 4 mps 744 mmHg 92%

    Pasado mañana, 20 Enero, Domingo

    Tiempo Temperatura Precipitaciones Viento Presión Humedad
    00:00 +5°C° 0.1 mm 5 mps 744 mmHg 91%
    01:00 +4°C° 0.1 mm 6 mps 745 mmHg 90%
    02:00 +4°C° 0.1 mm 7 mps 745 mmHg 89%
    03:00 +3°C° 0.1 mm 7 mps 746 mmHg 88%
    04:00 +3°C° 0.1 mm 7 mps 747 mmHg 86%
    05:00 +3°C° 0.1 mm 7 mps 748 mmHg 85%
    06:00 +2°C° 0 mm 7 mps 748 mmHg 84%
    07:00 +2°C° 0 mm 6 mps 749 mmHg 83%
    08:00 +1°C° 0 mm 6 mps 750 mmHg 82%
    09:00 +2°C° 0 mm 6 mps 751 mmHg 79%
    10:00 +2°C° 0 mm 6 mps 752 mmHg 76%
    11:00 +3°C° 0 mm 6 mps 752 mmHg 73%
    12:00 +3°C° 0 mm 5 mps 753 mmHg 73%
    13:00 +3°C° 0 mm 5 mps 753 mmHg 72%
    14:00 +4°C° 0 mm 4 mps 753 mmHg 72%
    15:00 +3°C° 0 mm 4 mps 754 mmHg 75%
    16:00 +2°C° 0 mm 3 mps 754 mmHg 78%
    17:00 +2°C° 0 mm 2 mps 755 mmHg 82%
    18:00 +1°C° 0 mm 2 mps 755 mmHg 82%
    19:00 +1°C° 0 mm 2 mps 755 mmHg 83%
    20:00 +1°C° 0 mm 2 mps 756 mmHg 83%
    21:00 +1°C° 0 mm 2 mps 756 mmHg 83%
    22:00 +1°C° 0 mm 2 mps 755 mmHg 83%
    23:00 +1°C° 0 mm 2 mps 755 mmHg 82%

    21 Enero, Lunes

    Tiempo Temperatura Precipitaciones Viento Presión Humedad
    00:00 +1°C° 0 mm 2 mps 755 mmHg 82%
    01:00 +1°C° 0 mm 2 mps 755 mmHg 82%
    02:00 +1°C° 0 mm 3 mps 754 mmHg 83%
    03:00 +1°C° 0 mm 3 mps 753 mmHg 83%
    04:00 +1°C° 0 mm 4 mps 753 mmHg 84%
    05:00 +1°C° 0 mm 4 mps 752 mmHg 84%
    06:00 +2°C° 0.2 mm 5 mps 751 mmHg 85%
    07:00 +2°C° 0.2 mm 6 mps 750 mmHg 87%
    08:00 +3°C° 0.2 mm 6 mps 749 mmHg 88%
    09:00 +3°C° 0.2 mm 7 mps 747 mmHg 86%
    10:00 +4°C° 0.2 mm 8 mps 746 mmHg 85%
    11:00 +5°C° 0.2 mm 9 mps 745 mmHg 84%
    12:00 +5°C° 1.8 mm 9 mps 743 mmHg 84%
    13:00 +4°C° 1.8 mm 8 mps 742 mmHg 84%
    14:00 +4°C° 1.8 mm 8 mps 741 mmHg 85%
    15:00 +3°C° 0.4 mm 7 mps 741 mmHg 83%
    16:00 0°C° 0.4 mm 7 mps 741 mmHg 80%
    17:00 -1°C° 0.4 mm 6 mps 741 mmHg 78%
    18:00 -2°C° 0.1 mm 6 mps 741 mmHg 79%
    19:00 -2°C° 0.1 mm 6 mps 741 mmHg 79%
    20:00 -2°C° 0.1 mm 5 mps 741 mmHg 80%
    21:00 -1°C° 0.3 mm 5 mps 741 mmHg 79%
    22:00 -2°C° 0.3 mm 6 mps 740 mmHg 79%
    23:00 -2°C° 0.3 mm 6 mps 740 mmHg 78%

    22 Enero, Martes

    Tiempo Temperatura Precipitaciones Viento Presión Humedad
    00:00 -2°C° 0.1 mm 6 mps 739 mmHg 78%
    01:00 -1°C° 0.1 mm 5 mps 739 mmHg 79%
    02:00 -1°C° 0.1 mm 5 mps 739 mmHg 79%
    03:00 -1°C° 0.1 mm 5 mps 739 mmHg 80%
    04:00 -1°C° 0.1 mm 5 mps 739 mmHg 81%
    05:00 -1°C° 0.1 mm 5 mps 739 mmHg 81%
    06:00 -1°C° 0.3 mm 4 mps 739 mmHg 83%
    07:00 -1°C° 0.3 mm 4 mps 739 mmHg 85%
    08:00 -1°C° 0.3 mm 4 mps 739 mmHg 86%
    09:00 -1°C° 0.3 mm 4 mps 738 mmHg 86%
    10:00 0°C° 0.3 mm 5 mps 738 mmHg 85%
    11:00 0°C° 0.3 mm 5 mps 738 mmHg 84%
    12:00 0°C° 0.2 mm 5 mps 738 mmHg 85%
    13:00 0°C° 0.2 mm 5 mps 737 mmHg 85%
    14:00 0°C° 0.2 mm 4 mps 737 mmHg 85%
    15:00 0°C° 0.2 mm 4 mps 737 mmHg 85%
    16:00 0°C° 0.2 mm 4 mps 736 mmHg 86%
    17:00 0°C° 0.2 mm 4 mps 736 mmHg 86%
    18:00 -1°C° 0.1 mm 4 mps 736 mmHg 86%
    19:00 -1°C° 0.1 mm 5 mps 736 mmHg 85%
    20:00 -1°C° 0.1 mm 5 mps 736 mmHg 85%
    21:00 -1°C° 0.2 mm 5 mps 736 mmHg 85%
    22:00 0°C° 0.2 mm 5 mps 736 mmHg 86%
    23:00 0°C° 0.2 mm 5 mps 736 mmHg 87%

    23 Enero, Miércoles

    Tiempo Temperatura Precipitaciones Viento Presión Humedad
    00:00 0°C° 0.1 mm 5 mps 736 mmHg 86%
    01:00 0°C° 0.1 mm 4 mps 737 mmHg 86%
    02:00 0°C° 0.1 mm 4 mps 737 mmHg 86%
    03:00 -1°C° 0.1 mm 4 mps 737 mmHg 86%
    04:00 0°C° 0.1 mm 3 mps 737 mmHg 87%
    05:00 0°C° 0.1 mm 3 mps 737 mmHg 88%
    06:00 0°C° 0.1 mm 3 mps 737 mmHg 87%
    07:00 -1°C° 0.1 mm 4 mps 737 mmHg 87%
    08:00 -1°C° 0.1 mm 4 mps 737 mmHg 87%
    09:00 0°C° 0.3 mm 4 mps 737 mmHg 86%
    10:00 +1°C° 0.3 mm 5 mps 738 mmHg 85%
    11:00 +2°C° 0.3 mm 5 mps 738 mmHg 84%
    12:00 +2°C° 0.2 mm 5 mps 737 mmHg 82%
    13:00 +2°C° 0.2 mm 6 mps 737 mmHg 81%
    14:00 +2°C° 0.2 mm 6 mps 737 mmHg 80%
    15:00 +2°C° 0.2 mm 6 mps 738 mmHg 81%
    16:00 +1°C° 0.2 mm 6 mps 738 mmHg 82%
    17:00 +1°C° 0.2 mm 5 mps 738 mmHg 84%
    18:00 +1°C° 0.1 mm 5 mps 739 mmHg 84%
    19:00 +1°C° 0.1 mm 5 mps 740 mmHg 84%
    20:00 +1°C° 0.1 mm 5 mps 740 mmHg 84%
    21:00 0°C° 0 mm 4 mps 741 mmHg 86%
    22:00 0°C° 0 mm 3 mps 742 mmHg 87%
    23:00 -1°C° 0 mm 3 mps 743 mmHg 89%
    Mostrar más